Location: Espelette
(43.3402°N, 1.4474°W)
Time: 20:38:09
(UTC+00:00)

Cosmos 2327 Rocket - Pass Details

Date: 19 May 2025
Orbit: 942 x 1008 km, 83.0° (Epoch: 18 June)

Event Time Altitude Azimuth Distance (km) Brightness Sun altitude
Rises 21:18:19 0° 351° (N) 3,652 8.6 -16.3°
Reaches altitude 10° 21:20:51 10° 350° (N) 2,694 7.7 -16.6°
Maximum altitude 21:26:59 80° 265° (W) 966 4.5 -17.3°
Enters shadow 21:31:15 21° 180° (S) 1,994 5.7 -17.8°
